Year,Month,Day,Hour,Minute,Value (Times are PST for temperature in C)
2012,05,26,00,00,18.90
2012,05,26,00,01,18.90
2012,05,26,00,02,19.00
2012,05,26,00,03,19.10
2012,05,26,00,04,19.10
2012,05,26,00,05,19.20
2012,05,26,00,06,19.20
2012,05,26,00,07,19.20
2012,05,26,00,08,19.20
2012,05,26,00,09,19.20
2012,05,26,00,10,19.20
2012,05,26,00,11,19.20
2012,05,26,00,12,19.20
2012,05,26,00,13,19.20
2012,05,26,00,14,19.20
2012,05,26,00,15,19.20
2012,05,26,00,16,19.10
2012,05,26,00,17,19.10
2012,05,26,00,18,19.10
2012,05,26,00,19,19.00
2012,05,26,00,20,19.00
2012,05,26,00,21,18.90
2012,05,26,00,22,18.90
2012,05,26,00,23,18.90
2012,05,26,00,24,18.80
2012,05,26,00,25,18.80
2012,05,26,00,26,18.70
2012,05,26,00,27,18.70
2012,05,26,00,28,18.70
2012,05,26,00,29,18.60
2012,05,26,00,30,18.60
2012,05,26,00,31,18.60
2012,05,26,00,32,18.60
2012,05,26,00,33,18.60
2012,05,26,00,34,18.60
2012,05,26,00,35,18.60
2012,05,26,00,36,18.60
2012,05,26,00,37,18.60
2012,05,26,00,38,18.60
2012,05,26,00,39,18.60
2012,05,26,00,40,18.60
2012,05,26,00,41,18.60
2012,05,26,00,42,18.60
2012,05,26,00,43,18.60
2012,05,26,00,44,18.60
2012,05,26,00,45,18.50
2012,05,26,00,46,18.40
2012,05,26,00,47,18.30
2012,05,26,00,48,18.20
2012,05,26,00,49,18.10
2012,05,26,00,50,18.00
2012,05,26,00,51,17.90
2012,05,26,00,52,17.80
2012,05,26,00,53,17.70
2012,05,26,00,54,17.60
2012,05,26,00,55,17.50
2012,05,26,00,56,17.40
2012,05,26,00,57,17.30
2012,05,26,00,58,17.20
2012,05,26,00,59,17.20
2012,05,26,01,00,17.10
2012,05,26,01,01,17.00
2012,05,26,01,02,16.90
2012,05,26,01,03,16.80
2012,05,26,01,04,16.80
2012,05,26,01,05,16.70
2012,05,26,01,06,16.70
2012,05,26,01,07,16.60
2012,05,26,01,08,16.50
2012,05,26,01,09,16.50
2012,05,26,01,10,16.40
2012,05,26,01,11,16.30
2012,05,26,01,12,16.30
2012,05,26,01,13,16.20
2012,05,26,01,14,16.10
2012,05,26,01,15,16.10
2012,05,26,01,16,16.00
2012,05,26,01,17,16.00
2012,05,26,01,18,15.90
2012,05,26,01,19,15.90
2012,05,26,01,20,15.80
2012,05,26,01,21,15.70
2012,05,26,01,22,15.70
2012,05,26,01,23,15.60
2012,05,26,01,24,15.60
2012,05,26,01,25,15.50
2012,05,26,01,26,15.50
2012,05,26,01,27,15.40
2012,05,26,01,28,15.40
2012,05,26,01,29,15.30
2012,05,26,01,30,15.20
2012,05,26,01,31,15.20
2012,05,26,01,32,15.10
2012,05,26,01,33,15.10
2012,05,26,01,34,15.00
2012,05,26,01,35,15.00
2012,05,26,01,36,14.90
2012,05,26,01,37,14.90
2012,05,26,01,38,14.80
2012,05,26,01,39,14.80
2012,05,26,01,40,14.80
2012,05,26,01,41,14.70
2012,05,26,01,42,14.70
2012,05,26,01,43,14.70
2012,05,26,01,44,14.60
2012,05,26,01,45,14.60
2012,05,26,01,46,14.60
2012,05,26,01,47,14.50
2012,05,26,01,48,14.50
2012,05,26,01,49,14.40
2012,05,26,01,50,14.40
2012,05,26,01,51,14.40
2012,05,26,01,52,14.30
2012,05,26,01,53,14.30
2012,05,26,01,54,14.30
2012,05,26,01,55,14.30
2012,05,26,01,56,14.30
2012,05,26,01,57,14.40
2012,05,26,01,58,14.40
2012,05,26,01,59,14.40
2012,05,26,02,00,14.50
2012,05,26,02,01,14.50
2012,05,26,02,02,14.60
2012,05,26,02,03,14.60
2012,05,26,02,04,14.70
2012,05,26,02,05,14.80
2012,05,26,02,06,14.90
2012,05,26,02,07,15.00
2012,05,26,02,08,15.20
2012,05,26,02,09,15.30
2012,05,26,02,10,15.40
2012,05,26,02,11,15.50
2012,05,26,02,12,15.70
2012,05,26,02,13,15.80
2012,05,26,02,14,15.90
2012,05,26,02,15,16.00
2012,05,26,02,16,16.10
2012,05,26,02,17,16.20
2012,05,26,02,18,16.30
2012,05,26,02,19,16.30
2012,05,26,02,20,16.40
2012,05,26,02,21,16.40
2012,05,26,02,22,16.50
2012,05,26,02,23,16.60
2012,05,26,02,24,16.60
2012,05,26,02,25,16.70
2012,05,26,02,26,16.70
2012,05,26,02,27,16.70
2012,05,26,02,28,16.70
2012,05,26,02,29,16.70
2012,05,26,02,30,16.70
2012,05,26,02,31,16.70
2012,05,26,02,32,16.70
2012,05,26,02,33,16.70
2012,05,26,02,34,16.80
2012,05,26,02,35,16.70
2012,05,26,02,36,16.70
2012,05,26,02,37,16.70
2012,05,26,02,38,16.80
2012,05,26,02,39,16.80
2012,05,26,02,40,16.80
2012,05,26,02,41,16.80
2012,05,26,02,42,16.80
2012,05,26,02,43,16.90
2012,05,26,02,44,16.90
2012,05,26,02,45,16.90
2012,05,26,02,46,16.90
2012,05,26,02,47,16.90
2012,05,26,02,48,16.90
2012,05,26,02,49,16.90
2012,05,26,02,50,16.90
2012,05,26,02,51,16.90
2012,05,26,02,52,16.90
2012,05,26,02,53,16.90
2012,05,26,02,54,16.90
2012,05,26,02,55,16.90
2012,05,26,02,56,16.90
2012,05,26,02,57,16.90
2012,05,26,02,58,16.90
2012,05,26,02,59,16.90
2012,05,26,03,00,16.80
2012,05,26,03,01,16.80
2012,05,26,03,02,16.80
2012,05,26,03,06,16.80
2012,05,26,03,07,16.80
2012,05,26,03,08,16.80
2012,05,26,03,09,16.80
2012,05,26,03,10,16.80
2012,05,26,03,11,16.80
2012,05,26,03,12,16.80
2012,05,26,03,13,16.80
2012,05,26,03,14,16.80
2012,05,26,03,15,16.80
2012,05,26,03,16,16.80
2012,05,26,03,17,16.80
2012,05,26,03,18,16.80
2012,05,26,03,19,16.70
2012,05,26,03,20,16.70
2012,05,26,03,21,16.70
2012,05,26,03,22,16.70
2012,05,26,03,23,16.70
2012,05,26,03,24,16.70
2012,05,26,03,25,16.70
2012,05,26,03,26,16.70
2012,05,26,03,27,16.70
2012,05,26,03,28,16.60
2012,05,26,03,29,16.60
2012,05,26,03,30,16.60
2012,05,26,03,31,16.50
2012,05,26,03,32,16.50
2012,05,26,03,33,16.40
2012,05,26,03,34,16.40
2012,05,26,03,35,16.40
2012,05,26,03,36,16.40
2012,05,26,03,37,16.30
2012,05,26,03,38,16.30
2012,05,26,03,39,16.30
2012,05,26,03,40,16.30
2012,05,26,03,41,16.20
2012,05,26,03,42,16.20
2012,05,26,03,43,16.20
2012,05,26,03,44,16.20
2012,05,26,03,45,16.20
2012,05,26,03,46,16.20
2012,05,26,03,47,16.20
2012,05,26,03,48,16.20
2012,05,26,03,49,16.20
2012,05,26,03,50,16.10
2012,05,26,03,51,16.10
2012,05,26,03,52,16.10
2012,05,26,03,53,16.10
2012,05,26,03,54,16.10
2012,05,26,03,55,16.10
2012,05,26,03,56,16.00
2012,05,26,03,57,16.00
2012,05,26,03,58,15.90
2012,05,26,03,59,15.90
2012,05,26,04,00,15.90
2012,05,26,04,01,15.80
2012,05,26,04,02,15.80
2012,05,26,04,03,15.80
2012,05,26,04,04,15.70
2012,05,26,04,05,15.70
2012,05,26,04,06,15.70
2012,05,26,04,07,15.60
2012,05,26,04,08,15.60
2012,05,26,04,09,15.50
2012,05,26,04,10,15.50
2012,05,26,04,11,15.40
2012,05,26,04,12,15.40
2012,05,26,04,13,15.30
2012,05,26,04,14,15.30
2012,05,26,04,15,15.30
2012,05,26,04,16,15.20
2012,05,26,04,17,15.20
2012,05,26,04,18,15.20
2012,05,26,04,19,15.20
2012,05,26,04,20,15.20
2012,05,26,04,21,15.10
2012,05,26,04,22,15.10
2012,05,26,04,23,15.10
2012,05,26,04,24,15.00
2012,05,26,04,25,15.00
2012,05,26,04,26,15.00
2012,05,26,04,27,14.90
2012,05,26,04,28,14.90
2012,05,26,04,29,14.90
2012,05,26,04,30,15.00
2012,05,26,04,31,15.00
2012,05,26,04,32,15.00
2012,05,26,04,33,15.00
2012,05,26,04,34,15.00
2012,05,26,04,35,15.00
2012,05,26,04,36,15.00
2012,05,26,04,37,15.00
2012,05,26,04,38,14.90
2012,05,26,04,39,14.90
2012,05,26,04,40,14.90
2012,05,26,04,41,14.80
2012,05,26,04,42,14.80
2012,05,26,04,43,14.80
2012,05,26,04,44,14.80
2012,05,26,04,45,14.70
2012,05,26,04,46,14.70
2012,05,26,04,47,14.70
2012,05,26,04,48,14.70
2012,05,26,04,49,14.60
2012,05,26,04,50,14.60
2012,05,26,04,51,14.60
2012,05,26,04,52,14.60
2012,05,26,04,53,14.50
2012,05,26,04,54,14.50
2012,05,26,04,55,14.40
2012,05,26,04,56,14.40
2012,05,26,04,57,14.30
2012,05,26,04,58,14.30
2012,05,26,04,59,14.20
2012,05,26,05,00,14.20
2012,05,26,05,01,14.10
2012,05,26,05,02,14.10
2012,05,26,05,03,14.00
2012,05,26,05,04,14.00
2012,05,26,05,05,13.90
2012,05,26,05,06,13.90
2012,05,26,05,07,13.90
2012,05,26,05,08,13.80
2012,05,26,05,09,13.80
2012,05,26,05,10,13.80
2012,05,26,05,11,13.70
2012,05,26,05,12,13.70
2012,05,26,05,13,13.70
2012,05,26,05,14,13.60
2012,05,26,05,15,13.60
2012,05,26,05,16,13.60
2012,05,26,05,17,13.50
2012,05,26,05,18,13.50
2012,05,26,05,19,13.40
2012,05,26,05,20,13.40
2012,05,26,05,21,13.40
2012,05,26,05,22,13.40
2012,05,26,05,23,13.30
2012,05,26,05,24,13.30
2012,05,26,05,25,13.30
2012,05,26,05,26,13.30
2012,05,26,05,27,13.20
2012,05,26,05,28,13.20
2012,05,26,05,29,13.20
2012,05,26,05,30,13.10
2012,05,26,05,31,13.10
2012,05,26,05,32,13.10
2012,05,26,05,33,13.00
2012,05,26,05,34,13.00
2012,05,26,05,35,12.90
2012,05,26,05,36,12.90
2012,05,26,05,37,12.90
2012,05,26,05,38,12.80
2012,05,26,05,39,12.80
2012,05,26,05,40,12.80
2012,05,26,05,41,12.80
2012,05,26,05,42,12.70
2012,05,26,05,43,12.70
2012,05,26,05,44,12.70
2012,05,26,05,45,12.70
2012,05,26,05,46,12.60
2012,05,26,05,47,12.60
2012,05,26,05,48,12.60
2012,05,26,05,49,12.60
2012,05,26,05,50,12.60
2012,05,26,05,51,12.60
2012,05,26,05,52,12.60
2012,05,26,05,53,12.60
2012,05,26,05,54,12.60
2012,05,26,05,55,12.60
2012,05,26,05,56,12.60
2012,05,26,05,57,12.60
2012,05,26,05,58,12.60
2012,05,26,05,59,12.60
2012,05,26,06,00,12.70
2012,05,26,06,01,12.70
2012,05,26,06,02,12.70
2012,05,26,06,03,12.70
2012,05,26,06,04,12.70
2012,05,26,06,05,12.80
2012,05,26,06,06,12.80
2012,05,26,06,07,12.80
2012,05,26,06,08,12.80
2012,05,26,06,09,12.90
2012,05,26,06,10,12.90
2012,05,26,06,11,12.90
2012,05,26,06,12,13.00
2012,05,26,06,13,13.00
2012,05,26,06,14,13.10
2012,05,26,06,15,13.10
2012,05,26,06,16,13.10
2012,05,26,06,17,13.20
2012,05,26,06,18,13.20
2012,05,26,06,19,13.20
2012,05,26,06,20,13.30
2012,05,26,06,21,13.30
2012,05,26,06,22,13.30
2012,05,26,06,23,13.30
2012,05,26,06,24,13.40
2012,05,26,06,25,13.40
2012,05,26,06,26,13.40
2012,05,26,06,27,13.40
2012,05,26,06,28,13.50
2012,05,26,06,29,13.50
2012,05,26,06,30,13.50
2012,05,26,06,31,13.60
2012,05,26,06,32,13.60
2012,05,26,06,33,13.60
2012,05,26,06,34,13.70
2012,05,26,06,35,13.70
2012,05,26,06,36,13.80
2012,05,26,06,37,13.80
2012,05,26,06,38,13.90
2012,05,26,06,39,13.90
2012,05,26,06,40,14.00
2012,05,26,06,41,14.10
2012,05,26,06,42,14.10
2012,05,26,06,43,14.20
2012,05,26,06,44,14.20
2012,05,26,06,45,14.30
2012,05,26,06,46,14.30
2012,05,26,06,47,14.30
2012,05,26,06,48,14.40
2012,05,26,06,49,14.40
2012,05,26,06,50,14.50
2012,05,26,06,51,14.60
2012,05,26,06,52,14.60
2012,05,26,06,53,14.70
2012,05,26,06,54,14.70
2012,05,26,06,55,14.80
2012,05,26,06,56,14.80
2012,05,26,06,57,14.90
2012,05,26,06,58,15.00
2012,05,26,06,59,15.00
2012,05,26,07,00,15.10
2012,05,26,07,01,15.10
2012,05,26,07,02,15.20
2012,05,26,07,03,15.30
2012,05,26,07,04,15.30
2012,05,26,07,05,15.40
2012,05,26,07,06,15.40
2012,05,26,07,07,15.50
2012,05,26,07,08,15.60
2012,05,26,07,09,15.60
2012,05,26,07,10,15.70
2012,05,26,07,11,15.80
2012,05,26,07,12,15.80
2012,05,26,07,13,15.90
2012,05,26,07,14,15.90
2012,05,26,07,15,16.00
2012,05,26,07,16,16.10
2012,05,26,07,17,16.10
2012,05,26,07,18,16.20
2012,05,26,07,19,16.20
2012,05,26,07,20,16.30
2012,05,26,07,21,16.30
2012,05,26,07,22,16.30
2012,05,26,07,23,16.30
2012,05,26,07,24,16.30
2012,05,26,07,25,16.40
2012,05,26,07,26,16.40
2012,05,26,07,27,16.40
2012,05,26,07,28,16.50
2012,05,26,07,29,16.50
2012,05,26,07,30,16.60
2012,05,26,07,31,16.60
2012,05,26,07,32,16.60
2012,05,26,07,33,16.60
2012,05,26,07,34,16.60
2012,05,26,07,35,16.60
2012,05,26,07,36,16.60
2012,05,26,07,37,16.60
2012,05,26,07,38,16.60
2012,05,26,07,39,16.60
2012,05,26,07,40,16.60
2012,05,26,07,41,16.60
2012,05,26,07,42,16.50
2012,05,26,07,43,16.50
2012,05,26,07,44,16.40
2012,05,26,07,45,16.40
2012,05,26,07,46,16.40
2012,05,26,07,47,16.30
2012,05,26,07,48,16.30
2012,05,26,07,49,16.20
2012,05,26,07,50,16.20
2012,05,26,07,51,16.20
2012,05,26,07,52,16.20
2012,05,26,07,53,16.20
2012,05,26,07,54,16.10
2012,05,26,07,55,16.10
2012,05,26,07,56,16.10
2012,05,26,07,57,16.10
2012,05,26,07,58,16.10
2012,05,26,07,59,16.10
2012,05,26,08,00,16.10
2012,05,26,08,01,16.10
2012,05,26,08,02,16.10
2012,05,26,08,03,16.10
2012,05,26,08,04,16.10
2012,05,26,08,05,16.20
2012,05,26,08,06,16.20
2012,05,26,08,07,16.20
2012,05,26,08,08,16.20
2012,05,26,08,09,16.20
2012,05,26,08,10,16.20
2012,05,26,08,11,16.20
2012,05,26,08,12,16.20
2012,05,26,08,13,16.30
2012,05,26,08,14,16.30
2012,05,26,08,15,16.30
2012,05,26,08,16,16.30
2012,05,26,08,17,16.40
2012,05,26,08,18,16.40
2012,05,26,08,19,16.40
2012,05,26,08,20,16.50
2012,05,26,08,21,16.50
2012,05,26,08,22,16.60
2012,05,26,08,23,16.60
2012,05,26,08,24,16.60
2012,05,26,08,25,16.60
2012,05,26,08,26,16.60
2012,05,26,08,27,16.60
2012,05,26,08,28,16.70
2012,05,26,08,29,16.70
2012,05,26,08,30,16.70
2012,05,26,08,31,16.70
2012,05,26,08,32,16.70
2012,05,26,08,33,16.70
2012,05,26,08,34,16.70
2012,05,26,08,35,16.60
2012,05,26,08,36,16.60
2012,05,26,08,37,16.60
2012,05,26,08,38,16.60
2012,05,26,08,39,16.60
2012,05,26,08,40,16.60
2012,05,26,08,41,16.60
2012,05,26,08,42,16.60
2012,05,26,08,43,16.60
2012,05,26,08,44,16.60
2012,05,26,08,45,16.60
2012,05,26,08,46,16.70
2012,05,26,08,47,16.70
2012,05,26,08,48,16.70
2012,05,26,08,49,16.70
2012,05,26,08,50,16.60
2012,05,26,08,51,16.60
2012,05,26,08,52,16.60
2012,05,26,08,53,16.60
2012,05,26,08,54,16.60
2012,05,26,08,55,16.70
2012,05,26,08,56,16.70
2012,05,26,08,57,16.70
2012,05,26,08,58,16.80
2012,05,26,08,59,16.80
2012,05,26,09,00,16.80
2012,05,26,09,01,16.80
2012,05,26,09,02,16.90
2012,05,26,09,03,17.00
2012,05,26,09,04,17.00
2012,05,26,09,05,17.10
2012,05,26,09,06,17.00
2012,05,26,09,07,17.00
2012,05,26,09,08,17.00
2012,05,26,09,09,16.90
2012,05,26,09,10,16.90
2012,05,26,09,11,16.90
2012,05,26,09,12,16.90
2012,05,26,09,13,16.90
2012,05,26,09,14,16.90
2012,05,26,09,15,17.00
2012,05,26,09,16,17.00
2012,05,26,09,17,16.90
2012,05,26,09,18,16.90
2012,05,26,09,19,16.90
2012,05,26,09,20,16.80
2012,05,26,09,21,16.90
2012,05,26,09,22,16.90
2012,05,26,09,23,16.90
2012,05,26,09,24,17.00
2012,05,26,09,25,17.00
2012,05,26,09,26,17.10
2012,05,26,09,27,17.10
2012,05,26,09,28,17.10
2012,05,26,09,29,17.10
2012,05,26,09,30,17.20
2012,05,26,09,31,17.20
2012,05,26,09,32,17.20
2012,05,26,09,33,17.30
2012,05,26,09,34,17.30
2012,05,26,09,35,17.40
2012,05,26,09,36,17.50
2012,05,26,09,37,17.60
2012,05,26,09,38,17.60
2012,05,26,09,39,17.60
2012,05,26,09,40,17.60
2012,05,26,09,41,17.70
2012,05,26,09,42,17.70
2012,05,26,09,43,17.70
2012,05,26,09,44,17.70
2012,05,26,09,45,17.70
2012,05,26,09,46,17.70
2012,05,26,09,47,17.70
2012,05,26,09,48,17.60
2012,05,26,09,49,17.60
2012,05,26,09,50,17.60
2012,05,26,09,51,17.50
2012,05,26,09,52,17.50
2012,05,26,09,53,17.40
2012,05,26,09,54,17.30
2012,05,26,09,55,17.30
2012,05,26,09,56,17.30
2012,05,26,09,57,17.30
2012,05,26,09,58,17.30
2012,05,26,09,59,17.40
2012,05,26,10,00,17.50
2012,05,26,10,01,17.50
2012,05,26,10,02,17.60
2012,05,26,10,03,17.60
2012,05,26,10,04,17.70
2012,05,26,10,05,17.60
2012,05,26,10,06,17.60
2012,05,26,10,07,17.60
2012,05,26,10,08,17.60
2012,05,26,10,09,17.70
2012,05,26,10,10,17.70
2012,05,26,10,11,17.70
2012,05,26,10,12,17.70
2012,05,26,10,13,17.80
2012,05,26,10,14,17.70
2012,05,26,10,15,17.70
2012,05,26,10,16,17.70
2012,05,26,10,17,17.80
2012,05,26,10,18,17.80
2012,05,26,10,19,17.90
2012,05,26,10,20,17.90
2012,05,26,10,21,18.00
2012,05,26,10,22,18.10
2012,05,26,10,23,18.20
2012,05,26,10,24,18.20
2012,05,26,10,25,18.30
2012,05,26,10,26,18.30
2012,05,26,10,27,18.30
2012,05,26,10,28,18.30
2012,05,26,10,29,18.30
2012,05,26,10,30,18.30
2012,05,26,10,31,18.30
2012,05,26,10,32,18.40
2012,05,26,10,33,18.40
2012,05,26,10,34,18.40
2012,05,26,10,35,18.40
2012,05,26,10,36,18.40
2012,05,26,10,37,18.30
2012,05,26,10,38,18.30
2012,05,26,10,39,18.30
2012,05,26,10,40,18.30
2012,05,26,10,41,18.30
2012,05,26,10,42,18.30
2012,05,26,10,43,18.40
2012,05,26,10,44,18.40
2012,05,26,10,45,18.40
2012,05,26,10,46,18.40
2012,05,26,10,47,18.30
2012,05,26,10,48,18.30
2012,05,26,10,49,18.30
2012,05,26,10,50,18.30
2012,05,26,10,51,18.40
2012,05,26,10,52,18.40
2012,05,26,10,53,18.50
2012,05,26,10,54,18.50
2012,05,26,10,55,18.50
2012,05,26,10,56,18.50
2012,05,26,10,57,18.60
2012,05,26,10,58,18.60
2012,05,26,10,59,18.50
2012,05,26,11,00,18.40
2012,05,26,11,01,18.40
2012,05,26,11,02,18.30
2012,05,26,11,03,18.30
2012,05,26,11,04,18.30
2012,05,26,11,05,18.30
2012,05,26,11,06,18.30
2012,05,26,11,07,18.30
2012,05,26,11,08,18.30
2012,05,26,11,09,18.40
2012,05,26,11,10,18.40
2012,05,26,11,11,18.40
2012,05,26,11,12,18.50
2012,05,26,11,13,18.60
2012,05,26,11,14,18.60
2012,05,26,11,15,18.60
2012,05,26,11,16,18.60
2012,05,26,11,17,18.60
2012,05,26,11,18,18.60
2012,05,26,11,19,18.60
2012,05,26,11,20,18.60
2012,05,26,11,21,18.60
2012,05,26,11,22,18.60
2012,05,26,11,23,18.60
2012,05,26,11,24,18.50
2012,05,26,11,25,18.50
2012,05,26,11,26,18.50
2012,05,26,11,27,18.60
2012,05,26,11,28,18.60
2012,05,26,11,29,18.60
2012,05,26,11,30,18.60
2012,05,26,11,31,18.60
2012,05,26,11,32,18.70
2012,05,26,11,33,18.60
2012,05,26,11,34,18.60
2012,05,26,11,35,18.60
2012,05,26,11,36,18.60
2012,05,26,11,37,18.60
2012,05,26,11,38,18.70
2012,05,26,11,39,18.70
2012,05,26,11,40,18.70
2012,05,26,11,41,18.70
2012,05,26,11,42,18.80
2012,05,26,11,43,18.80
2012,05,26,11,44,18.90
2012,05,26,11,45,18.90
2012,05,26,11,46,18.80
2012,05,26,11,47,18.80
2012,05,26,11,48,18.80
2012,05,26,11,49,18.80
2012,05,26,11,50,18.80
2012,05,26,11,51,18.80
2012,05,26,11,52,18.80
2012,05,26,11,53,18.80
2012,05,26,11,54,18.80
2012,05,26,11,55,18.90
2012,05,26,11,56,18.90
2012,05,26,11,57,18.90
2012,05,26,11,58,18.90
2012,05,26,11,59,18.90
2012,05,26,12,00,18.90
2012,05,26,12,01,19.00
2012,05,26,12,02,19.10
2012,05,26,12,03,19.10
2012,05,26,12,04,19.00
2012,05,26,12,05,19.00
2012,05,26,12,06,18.90
2012,05,26,12,07,18.90
2012,05,26,12,08,18.90
2012,05,26,12,09,18.90
2012,05,26,12,10,18.90
2012,05,26,12,11,19.00
2012,05,26,12,12,19.00
2012,05,26,12,13,19.00
2012,05,26,12,14,19.00
2012,05,26,12,15,19.00
2012,05,26,12,16,19.10
2012,05,26,12,17,19.10
2012,05,26,12,18,19.20
2012,05,26,12,19,19.20
2012,05,26,12,20,19.30
2012,05,26,12,21,19.30
2012,05,26,12,22,19.30
2012,05,26,12,23,19.40
2012,05,26,12,24,19.40
2012,05,26,12,25,19.50
2012,05,26,12,26,19.50
2012,05,26,12,27,19.60
2012,05,26,12,28,19.60
2012,05,26,12,29,19.60
2012,05,26,12,30,19.70
2012,05,26,12,31,19.70
2012,05,26,12,32,19.70
2012,05,26,12,33,19.70
2012,05,26,12,34,19.70
2012,05,26,12,35,19.70
2012,05,26,12,36,19.70
2012,05,26,12,37,19.70
2012,05,26,12,38,19.80
2012,05,26,12,39,19.80
2012,05,26,12,40,19.80
2012,05,26,12,41,19.80
2012,05,26,12,42,19.90
2012,05,26,12,43,19.90
2012,05,26,12,44,19.90
2012,05,26,12,45,19.90
2012,05,26,12,46,19.90
2012,05,26,12,47,19.80
2012,05,26,12,48,19.80
2012,05,26,12,49,19.80
2012,05,26,12,50,19.90
2012,05,26,12,51,19.90
2012,05,26,12,52,19.90
2012,05,26,12,53,19.90
2012,05,26,12,54,19.90
2012,05,26,12,55,19.90
2012,05,26,12,56,19.80
2012,05,26,12,57,19.80
2012,05,26,12,58,19.80
2012,05,26,12,59,19.80
2012,05,26,13,00,19.90
2012,05,26,13,01,19.90
2012,05,26,13,02,19.90
2012,05,26,13,03,19.90
2012,05,26,13,04,19.90
2012,05,26,13,05,19.80
2012,05,26,13,06,19.80
2012,05,26,13,07,19.80
2012,05,26,13,08,19.70
2012,05,26,13,09,19.80
2012,05,26,13,10,19.80
2012,05,26,13,11,19.80
2012,05,26,13,12,19.80
2012,05,26,13,13,19.80
2012,05,26,13,14,19.80
2012,05,26,13,15,19.80
2012,05,26,13,16,19.80
2012,05,26,13,17,19.90
2012,05,26,13,18,20.00
2012,05,26,13,19,20.00
2012,05,26,13,20,20.00
2012,05,26,13,21,19.90
2012,05,26,13,22,19.90
2012,05,26,13,23,19.90
2012,05,26,13,24,19.90
2012,05,26,13,25,19.80
2012,05,26,13,26,19.70
2012,05,26,13,27,19.70
2012,05,26,13,28,19.60
2012,05,26,13,29,19.60
2012,05,26,13,30,19.50
2012,05,26,13,31,19.40
2012,05,26,13,32,19.40
2012,05,26,13,33,19.30
2012,05,26,13,34,19.30
2012,05,26,13,35,19.40
2012,05,26,13,36,19.40
2012,05,26,13,37,19.40
2012,05,26,13,38,19.40
2012,05,26,13,39,19.40
2012,05,26,13,40,19.30
2012,05,26,13,41,19.30
2012,05,26,13,42,19.30
2012,05,26,13,43,19.40
2012,05,26,13,44,19.40
2012,05,26,13,45,19.50
2012,05,26,13,46,19.60
2012,05,26,13,47,19.70
2012,05,26,13,48,19.80
2012,05,26,13,49,19.80
2012,05,26,13,50,19.80
2012,05,26,13,51,19.90
2012,05,26,13,52,19.90
2012,05,26,13,53,20.00
2012,05,26,13,54,20.10
2012,05,26,13,55,20.20
2012,05,26,13,56,20.30
2012,05,26,13,57,20.30
2012,05,26,13,58,20.40
2012,05,26,13,59,20.40
2012,05,26,14,00,20.40
2012,05,26,14,01,20.40
2012,05,26,14,02,20.40
2012,05,26,14,03,20.50
2012,05,26,14,04,20.50
2012,05,26,14,05,20.60
2012,05,26,14,06,20.60
2012,05,26,14,07,20.70
2012,05,26,14,08,20.70
2012,05,26,14,09,20.70
2012,05,26,14,10,20.70
2012,05,26,14,11,20.80
2012,05,26,14,12,20.70
2012,05,26,14,13,20.60
2012,05,26,14,14,20.50
2012,05,26,14,15,20.40
2012,05,26,14,16,20.40
2012,05,26,14,17,20.30
2012,05,26,14,18,20.30
2012,05,26,14,19,20.20
2012,05,26,14,20,20.20
2012,05,26,14,21,20.10
2012,05,26,14,22,20.00
2012,05,26,14,23,19.90
2012,05,26,14,24,19.90
2012,05,26,14,25,19.80
2012,05,26,14,26,19.80
2012,05,26,14,27,19.70
2012,05,26,14,28,19.70
2012,05,26,14,29,19.70
2012,05,26,14,30,19.80
2012,05,26,14,31,19.80
2012,05,26,14,32,19.90
2012,05,26,14,33,20.00
2012,05,26,14,34,20.20
2012,05,26,14,35,20.30
2012,05,26,14,36,20.40
2012,05,26,14,37,20.50
2012,05,26,14,38,20.50
2012,05,26,14,39,20.60
2012,05,26,14,40,20.60
2012,05,26,14,41,20.60
2012,05,26,14,42,20.60
2012,05,26,14,43,20.70
2012,05,26,14,44,20.70
2012,05,26,14,45,20.80
2012,05,26,14,46,20.80
2012,05,26,14,47,20.80
2012,05,26,14,48,20.90
2012,05,26,14,49,21.00
2012,05,26,14,50,21.10
2012,05,26,14,51,21.20
2012,05,26,14,52,21.40
2012,05,26,14,53,21.50
2012,05,26,14,54,21.70
2012,05,26,14,55,21.80
2012,05,26,14,56,21.90
2012,05,26,14,57,22.00
2012,05,26,14,58,22.10
2012,05,26,14,59,22.20
2012,05,26,15,00,22.30
2012,05,26,15,01,22.30
2012,05,26,15,02,22.20
2012,05,26,15,03,22.00
2012,05,26,15,04,21.70
2012,05,26,15,05,21.40
2012,05,26,15,06,21.20
2012,05,26,15,07,21.10
2012,05,26,15,08,21.00
2012,05,26,15,09,21.00
2012,05,26,15,10,21.00
2012,05,26,15,11,21.10
2012,05,26,15,12,21.10
2012,05,26,15,13,21.00
2012,05,26,15,14,21.00
2012,05,26,15,15,21.10
2012,05,26,15,16,21.10
2012,05,26,15,17,21.30
2012,05,26,15,18,21.40
2012,05,26,15,19,21.40
2012,05,26,15,20,21.40
2012,05,26,15,21,21.20
2012,05,26,15,22,21.10
2012,05,26,15,23,21.00
2012,05,26,15,24,21.00
2012,05,26,15,25,21.00
2012,05,26,15,26,21.00
2012,05,26,15,27,21.10
2012,05,26,15,28,21.20
2012,05,26,15,29,21.30
2012,05,26,15,30,21.40
2012,05,26,15,31,21.50
2012,05,26,15,32,21.50
2012,05,26,15,33,21.60
2012,05,26,15,34,21.50
2012,05,26,15,35,21.30
2012,05,26,15,36,21.10
2012,05,26,15,37,20.90
2012,05,26,15,38,20.80
2012,05,26,15,39,20.70
2012,05,26,15,40,20.60
2012,05,26,15,41,20.50
2012,05,26,15,42,20.40
2012,05,26,15,43,20.30
2012,05,26,15,44,20.20
2012,05,26,15,45,20.10
2012,05,26,15,46,20.10
2012,05,26,15,47,20.00
2012,05,26,15,48,20.00
2012,05,26,15,49,20.00
2012,05,26,15,50,20.10
2012,05,26,15,51,20.20
2012,05,26,15,52,20.30
2012,05,26,15,53,20.50
2012,05,26,15,54,20.60
2012,05,26,15,55,20.80
2012,05,26,15,56,21.00
2012,05,26,15,57,21.20
2012,05,26,15,58,21.40
2012,05,26,15,59,21.50
2012,05,26,16,00,21.60
2012,05,26,16,01,21.60
2012,05,26,16,02,21.70
2012,05,26,16,03,21.70
2012,05,26,16,04,21.70
2012,05,26,16,05,21.70
2012,05,26,16,06,21.70
2012,05,26,16,07,21.70
2012,05,26,16,08,21.70
2012,05,26,16,09,21.60
2012,05,26,16,10,21.60
2012,05,26,16,11,21.50
2012,05,26,16,12,21.50
2012,05,26,16,13,21.50
2012,05,26,16,14,21.50
2012,05,26,16,15,21.60
2012,05,26,16,16,21.60
2012,05,26,16,17,21.70
2012,05,26,16,18,21.70
2012,05,26,16,19,21.80
2012,05,26,16,20,21.80
2012,05,26,16,21,21.80
2012,05,26,16,22,21.80
2012,05,26,16,23,21.80
2012,05,26,16,24,21.80
2012,05,26,16,25,21.80
2012,05,26,16,26,21.80
2012,05,26,16,27,21.80
2012,05,26,16,28,21.80
2012,05,26,16,29,21.80
2012,05,26,16,30,21.80
2012,05,26,16,31,21.70
2012,05,26,16,32,21.60
2012,05,26,16,33,21.40
2012,05,26,16,34,21.30
2012,05,26,16,35,21.20
2012,05,26,16,36,21.10
2012,05,26,16,37,21.00
2012,05,26,16,38,21.00
2012,05,26,16,39,20.90
2012,05,26,16,40,20.90
2012,05,26,16,41,21.00
2012,05,26,16,42,21.00
2012,05,26,16,43,21.10
2012,05,26,16,44,21.20
2012,05,26,16,45,21.20
2012,05,26,16,46,21.30
2012,05,26,16,47,21.30
2012,05,26,16,48,21.30
2012,05,26,16,49,21.40
2012,05,26,16,50,21.40
2012,05,26,16,51,21.40
2012,05,26,16,52,21.40
2012,05,26,16,53,21.40
2012,05,26,16,54,21.40
2012,05,26,16,55,21.40
2012,05,26,16,56,21.30
2012,05,26,16,57,21.30
2012,05,26,16,58,21.20
2012,05,26,16,59,21.10
2012,05,26,17,00,21.00
2012,05,26,17,01,20.90
2012,05,26,17,02,20.90
2012,05,26,17,03,20.90
2012,05,26,17,04,20.90
2012,05,26,17,05,20.90
2012,05,26,17,06,21.00
2012,05,26,17,07,21.00
2012,05,26,17,08,21.10
2012,05,26,17,09,21.00
2012,05,26,17,10,21.00
2012,05,26,17,11,20.90
2012,05,26,17,12,20.90
2012,05,26,17,13,20.80
2012,05,26,17,14,20.80
2012,05,26,17,15,20.80
2012,05,26,17,16,20.80
2012,05,26,17,17,20.80
2012,05,26,17,18,20.90
2012,05,26,17,19,20.90
2012,05,26,17,20,21.00
2012,05,26,17,21,21.10
2012,05,26,17,22,21.20